Theta_e
316 314 316 318 318 317 316 315 314 315 315 316 316 317 320 320 321 323 323 322 322 323 323 323 322 322 322 323 323 323 323 323 323 324 324 324 325 326 325 325 325 324 324 323 323 322 322 322 323 322 321 321 321 321 320 320 319 319 319 318 317 316 315
315 311 315 316 315 314 312 311 311 311 312 312 312 314 315 316 319 322 321 321 322 322 323 324 324 324 323 323 324 325 325 325 324 324 323 323 323 324 324 325 325 324 324 323 322 322 321 322 322 322 321 320 320 320 320 319 319 318 316 315 314 314 314
313 312 317 317 315 312 310 311 311 310 311 312 314 316 315 314 318 320 320 320 321 322 323 323 324 326 326 325 326 326 325 325 325 324 323 323 323 324 324 324 325 325 324 323 322 321 321 321 321 321 320 319 318 319 320 319 317 316 313 311 311 311 312
312 314 317 318 316 312 311 314 313 312 313 316 320 321 319 317 319 320 319 318 319 321 322 322 322 323 324 326 326 325 323 324 325 324 324 324 324 324 324 324 324 324 324 323 322 322 321 321 320 319 319 318 317 318 319 317 315 313 310 309 309 308 308
312 313 314 315 313 311 312 315 314 314 315 318 322 323 322 322 322 321 321 320 319 321 322 323 322 321 321 324 325 323 321 322 323 323 323 324 323 323 323 324 324 324 324 323 322 322 321 321 320 317 316 316 315 316 316 313 312 311 310 309 309 308 307
313 312 312 312 311 310 313 315 315 315 314 316 321 323 324 323 322 321 321 322 322 322 322 323 323 321 321 323 324 322 320 320 321 322 322 323 323 323 323 324 324 324 324 324 323 322 320 319 318 314 313 314 313 313 313 311 310 310 310 309 309 310 308
312 310 310 309 309 311 314 316 314 314 314 314 317 321 322 321 320 319 320 321 322 323 322 322 321 321 322 323 322 320 319 320 321 321 323 324 324 323 323 324 324 324 324 323 322 322 318 315 312 310 311 313 312 311 312 311 309 308 309 308 309 311 310
311 310 309 309 310 312 314 316 315 315 316 314 314 316 317 316 317 318 319 319 319 320 320 319 321 322 321 321 320 318 318 320 322 322 323 324 323 323 322 322 323 323 324 323 322 321 317 311 310 310 310 312 312 312 312 311 309 308 309 309 309 310 310
312 311 311 312 312 313 315 315 315 317 317 316 314 312 312 314 316 317 318 318 317 318 318 318 321 322 321 321 320 318 319 321 323 323 323 322 321 320 318 318 319 320 322 322 322 322 318 313 311 312 311 311 311 312 312 311 308 307 308 308 309 310 309
314 314 315 315 313 314 316 316 316 316 317 316 314 311 311 314 316 317 318 318 317 317 318 319 321 322 322 322 321 320 321 322 323 322 321 321 320 318 314 313 315 316 318 320 321 321 319 315 312 311 312 311 310 310 310 309 307 308 309 308 309 311 310
317 316 318 317 314 314 317 317 316 317 317 317 315 312 312 314 316 317 317 318 319 318 318 320 322 322 322 322 322 322 323 322 322 320 318 317 318 317 315 314 314 315 316 317 319 320 320 317 313 311 311 311 311 311 310 309 308 308 309 308 309 311 311
318 318 319 318 315 315 317 317 317 318 319 318 316 313 312 313 314 315 315 317 320 320 319 319 321 321 320 320 321 322 322 321 320 318 315 314 314 315 315 314 315 315 315 316 317 319 320 318 315 313 311 311 311 312 311 310 309 309 309 309 310 311 311
320 319 320 319 316 314 316 316 316 319 319 317 314 311 309 310 311 312 314 318 320 321 319 319 320 319 318 318 319 321 322 320 319 317 316 315 314 314 314 314 314 315 315 315 315 316 317 317 315 315 314 312 311 311 311 310 311 310 309 309 311 311 311
321 320 321 319 316 314 315 314 316 319 317 313 310 307 306 308 309 310 315 319 321 321 320 319 319 318 316 315 316 319 321 320 319 318 316 314 313 312 313 313 314 315 315 315 315 315 315 315 315 315 315 314 312 311 310 310 312 312 310 311 312 311 311
322 322 322 319 315 314 313 314 315 315 312 309 308 307 307 308 307 308 314 318 320 320 318 318 318 317 316 313 309 310 314 317 317 315 312 310 309 309 310 311 313 314 314 314 314 314 314 314 314 314 315 315 314 311 310 312 314 314 313 313 313 311 311
324 323 322 319 315 313 312 312 311 310 309 309 308 308 308 307 305 306 311 317 318 317 316 316 316 316 316 311 306 304 307 308 309 309 309 309 308 307 307 309 312 313 314 314 314 314 314 314 314 314 314 315 315 312 312 314 315 314 314 314 313 312 311
324 322 321 318 315 313 311 309 309 309 310 309 308 309 308 308 306 306 308 313 316 315 314 313 313 313 312 308 304 304 304 305 307 309 310 310 310 309 308 308 309 311 312 312 312 313 314 314 315 314 314 315 315 314 314 315 315 315 315 314 313 313 312
323 322 321 319 315 314 311 309 311 311 310 308 309 310 310 310 310 309 309 309 311 312 311 310 309 309 307 306 305 305 306 308 309 310 311 311 310 311 310 310 309 310 310 311 311 312 314 314 315 315 315 315 314 314 314 314 315 315 315 314 314 314 313
323 322 321 317 314 314 312 312 312 311 308 307 309 310 311 311 311 311 311 309 307 308 309 308 308 309 309 309 309 310 310 311 311 311 311 311 310 310 310 310 311 310 311 311 312 312 313 314 315 315 315 315 315 315 314 314 314 315 315 314 314 314 314
322 321 318 314 313 312 310 312 313 310 307 308 310 312 312 312 312 312 313 311 309 309 308 308 310 312 312 312 312 312 313 312 312 311 311 310 310 310 310 310 310 310 311 312 313 313 313 314 314 315 315 315 315 315 314 314 314 315 315 315 314 314 314
322 322 320 318 317 314 311 313 313 310 310 312 313 315 314 313 313 313 313 313 312 311 309 308 309 311 312 312 313 313 313 313 312 311 311 310 310 310 310 310 310 310 311 312 313 313 313 314 314 314 315 315 314 315 315 314 314 314 314 315 315 314 314
322 322 322 321 321 319 316 316 315 313 314 314 314 315 315 313 313 313 314 314 314 314 313 310 309 309 309 310 312 313 313 313 312 311 311 310 310 310 310 310 310 310 311 312 313 313 313 314 314 314 315 315 315 315 315 315 315 314 314 314 314 314 314
323 322 322 321 322 322 320 319 318 317 317 316 315 316 316 314 313 314 314 314 314 315 315 314 312 309 308 308 309 311 312 312 312 312 311 311 310 310 311 311 311 310 312 314 315 314 314 315 315 315 315 315 315 315 315 315 315 315 315 314 314 314 314
323 322 322 321 322 322 321 321 320 320 320 319 318 317 318 316 314 313 314 314 314 315 315 315 314 312 311 310 309 309 310 311 312 311 311 311 311 311 311 311 311 311 312 314 316 316 315 316 316 316 316 316 316 316 315 315 316 316 316 315 315 315 314
323 323 322 321 322 322 323 323 322 321 321 321 320 319 319 318 316 314 314 314 314 314 314 314 314 313 313 313 312 311 311 310 311 311 311 311 312 312 312 312 312 312 312 315 316 316 316 316 316 316 315 315 315 315 314 314 315 315 316 316 315 315 315
323 323 322 322 322 322 323 323 322 321 321 321 321 320 319 318 317 316 316 315 315 314 314 314 314 314 314 313 313 313 313 312 312 312 311 312 313 314 314 314 313 313 314 316 317 317 317 316 316 315 314 314 314 313 313 313 313 314 315 315 315 314 314
322 322 322 321 322 322 322 322 321 320 321 321 322 321 319 319 319 319 319 318 317 316 316 315 315 315 314 314 314 314 314 314 314 313 313 313 313 313 314 314 314 314 315 316 317 318 318 317 316 315 314 314 313 313 312 313 313 313 314 314 313 312 312
320 320 321 320 320 321 320 321 321 320 320 321 321 321 321 321 320 320 320 320 320 319 318 317 316 316 316 315 314 314 314 314 315 314 314 314 314 314 314 314 314 314 315 317 318 318 318 317 316 315 314 314 314 313 313 313 313 313 312 311 310 310 312
318 318 319 319 319 319 319 319 320 319 319 320 320 320 321 321 321 321 320 320 320 320 319 319 318 318 318 317 316 315 315 315 315 315 315 315 315 315 315 315 315 315 316 317 318 318 318 318 317 315 315 315 314 313 313 313 313 312 310 308 308 310 313
314 314 315 315 316 317 318 318 318 318 317 317 317 318 319 319 319 319 319 318 319 319 319 319 320 319 320 320 319 318 317 316 315 315 315 315 315 316 316 317 317 316 317 317 317 318 319 318 317 316 316 315 315 314 313 313 313 311 307 307 310 312 313
312 311 311 312 313 314 314 314 314 315 315 315 315 315 316 317 317 317 317 317 317 317 317 317 318 318 319 319 319 320 320 319 318 317 316 316 317 318 318 318 318 318 318 317 318 319 319 317 316 316 316 315 314 314 314 314 312 308 307 310 312 313 313
309 308 308 309 310 310 311 311 311 312 312 312 313 313 313 314 315 315 315 315 315 315 315 316 316 317 317 317 318 319 319 320 320 319 318 317 317 318 319 319 319 319 318 319 319 318 318 317 316 315 315 315 314 315 314 313 311 308 309 311 312 311 310
303 303 303 303 304 305 306 306 307 308 308 309 310 311 312 312 313 314 314 314 314 314 314 314 315 316 315 316 316 317 318 318 319 319 319 318 318 317 318 318 318 318 318 318 318 317 317 315 314 314 314 314 315 315 314 313 311 309 309 309 308 307 306
300 300 300 301 301 301 302 302 302 303 303 304 305 306 307 307 308 308 309 310 310 311 311 312 313 314 314 314 314 315 315 316 316 317 317 318 318 318 318 318 318 318 318 318 318 317 316 316 314 314 314 315 315 313 311 310 309 308 306 306 305 305 304
300 300 300 300 300 300 300 300 301 301 301 301 301 302 302 303 303 303 303 304 305 305 305 306 308 310 312 313 313 313 313 314 314 315 315 316 317 317 317 318 318 318 318 318 318 317 317 316 315 315 314 315 314 311 308 308 307 306 304 304 304 304 304
299 299 299 299 299 300 300 300 300 300 300 300 300 300 300 301 301 301 301 301 301 301 302 302 303 305 307 309 310 311 312 312 313 315 315 315 315 315 315 316 317 318 318 318 318 318 317 316 316 315 315 314 313 311 309 308 307 306 306 306 306 306 306
299 299 299 299 299 299 299 299 299 299 299 299 299 299 300 300 300 300 300 300 300 299 300 300 301 302 304 305 307 309 310 311 312 313 314 314 313 313 313 314 315 316 317 318 317 317 317 316 316 315 315 314 312 311 310 308 307 308 307 306 306 305 305
Wind_Speed
16 15 15 13 11 10 9 8 7 7 7 6 6 7 8 8 9 10 11 9 8 8 8 9 9 8 9 9 9 8 8 9 10 9 10 12 14 14 14 11 8 15 19 17 17 19 19 20 17 15 12 11 9 6 4 6 8 9 10 9 8 7 7
15 15 15 14 12 11 9 8 7 7 7 7 7 7 8 9 10 12 12 11 10 9 9 9 10 9 9 10 9 8 8 9 10 10 10 12 13 13 15 12 12 18 18 15 17 17 18 21 20 18 15 13 11 8 5 7 8 7 8 8 7 7 6
17 17 15 13 12 10 8 7 7 7 7 7 7 7 8 9 11 12 11 11 10 9 9 10 10 10 10 10 9 8 8 9 9 10 10 11 12 12 14 13 13 18 18 16 18 19 18 20 21 20 17 14 13 11 8 7 6 6 7 8 7 6 4
20 18 16 15 13 10 9 8 7 7 6 7 8 7 7 8 9 9 9 9 9 8 8 8 8 8 9 9 9 9 9 9 10 11 12 12 13 13 14 12 12 15 18 19 20 20 19 19 21 21 17 12 11 12 11 8 6 6 7 8 8 6 4
20 18 16 16 14 13 12 10 8 8 8 10 10 9 9 8 7 7 8 8 8 8 8 8 7 5 6 8 9 10 10 11 12 11 12 12 12 13 13 12 11 12 15 18 19 19 16 16 19 20 18 15 13 13 12 9 7 6 6 8 9 7 5
20 17 16 16 15 14 13 11 10 9 10 11 11 11 10 9 8 7 8 9 8 8 8 8 6 4 5 7 10 11 10 11 11 10 11 11 11 11 12 12 11 12 14 16 16 16 13 14 18 20 20 18 16 15 12 9 7 6 5 7 8 7 6
18 17 16 16 16 15 13 11 10 8 8 10 11 11 10 9 9 8 8 8 9 9 9 8 7 6 7 10 11 11 9 9 9 10 11 11 12 11 11 11 12 13 13 14 15 15 13 15 18 20 22 20 16 15 13 10 6 5 5 6 7 7 6
18 17 16 16 16 14 12 11 9 8 7 8 10 11 10 10 10 8 8 8 8 9 10 9 9 10 10 12 12 11 10 10 10 11 12 13 13 13 13 13 13 14 13 14 16 15 13 14 16 16 17 19 19 15 13 12 8 4 4 5 5 7 7
18 18 17 17 16 14 12 10 7 7 7 6 8 10 10 10 9 8 7 8 8 8 9 10 11 11 11 12 12 12 13 13 13 14 15 15 16 16 16 14 13 14 14 16 18 16 14 14 13 12 10 11 18 19 16 14 11 8 5 3 4 7 7
18 18 17 17 16 14 12 9 7 7 6 4 5 8 9 8 8 6 7 8 9 8 9 11 12 11 11 11 11 13 15 16 16 17 16 16 17 17 16 13 11 12 13 15 19 18 17 15 14 14 10 5 10 17 18 17 14 10 8 5 3 5 6
18 18 16 16 15 13 12 10 8 7 6 4 4 6 7 8 8 6 8 10 11 9 9 11 12 12 11 11 13 15 17 18 18 17 16 15 16 16 15 13 11 11 11 13 17 18 18 17 14 15 13 8 6 8 11 15 15 12 8 7 4 2 2
19 17 16 15 14 13 12 11 9 8 7 6 5 6 8 9 8 8 10 13 12 10 10 11 13 13 12 13 15 16 18 19 18 18 16 15 15 15 15 14 12 13 13 14 16 17 18 17 14 14 16 15 11 8 7 10 13 12 10 7 3 0 1
20 18 17 16 14 13 11 10 9 9 8 6 6 7 8 8 9 10 13 14 13 12 11 11 13 13 14 14 15 18 19 19 18 18 17 16 16 15 16 16 14 15 16 17 18 18 17 14 11 11 14 17 16 13 11 10 8 9 10 6 3 2 2
21 19 18 16 14 12 11 9 9 9 8 7 7 7 7 8 9 11 14 15 15 14 12 11 12 13 14 15 15 18 19 19 19 18 17 16 17 17 18 18 18 17 17 18 18 16 14 11 9 9 9 13 17 18 16 12 7 6 9 7 4 4 4
21 19 17 15 14 12 11 9 9 9 9 8 7 7 8 8 9 12 15 16 16 15 14 12 13 14 14 15 15 17 19 20 19 18 17 17 17 18 19 20 21 19 17 17 16 14 12 11 11 10 7 8 14 19 17 11 6 6 8 8 6 5 4
20 19 17 14 13 12 10 10 9 9 8 8 8 8 8 9 10 12 15 17 16 15 14 13 14 15 15 15 16 18 19 19 19 18 18 18 18 18 19 21 22 20 18 17 16 14 13 12 12 11 8 8 12 17 16 11 8 7 9 9 7 5 5
19 19 17 15 14 12 11 11 10 9 8 8 9 9 8 9 10 11 13 16 17 15 14 14 15 16 16 16 17 20 21 19 18 19 19 18 18 18 18 20 21 21 20 18 17 17 14 13 12 10 9 10 11 12 12 10 9 8 9 9 7 6 6
20 19 18 16 15 13 13 13 11 9 9 10 10 10 11 11 10 9 9 11 15 15 14 14 15 16 17 18 19 21 21 20 19 19 19 18 17 17 17 18 19 20 20 19 19 19 17 15 13 11 11 11 10 9 9 9 9 9 9 8 7 6 7
19 18 18 17 16 15 14 13 12 10 9 11 12 12 13 12 10 8 5 6 12 15 15 15 17 18 18 19 20 21 21 20 20 20 20 18 17 17 17 17 17 18 18 18 17 18 18 17 15 14 14 14 12 10 10 9 9 10 9 8 7 7 8
17 16 16 16 15 15 15 13 12 12 12 13 13 13 13 13 11 9 7 6 10 14 14 15 18 19 19 19 20 21 22 21 20 20 20 19 18 17 17 17 17 17 17 17 16 17 18 18 17 17 17 16 14 14 13 11 11 11 11 10 10 9 9
18 17 15 13 12 13 13 13 13 13 14 15 14 12 11 13 13 11 9 8 8 10 11 13 18 20 19 19 19 19 20 21 20 19 19 19 19 19 19 18 17 17 17 17 17 18 18 19 18 19 19 18 17 16 16 15 14 13 12 12 12 12 11
19 18 15 13 12 12 13 14 14 14 14 13 13 12 10 11 13 13 12 11 10 9 8 9 14 19 19 19 19 19 20 20 21 20 20 20 20 20 20 19 18 17 16 16 18 19 20 20 20 20 20 20 19 18 17 16 16 16 15 14 14 14 14
20 17 15 15 15 14 13 13 13 13 13 12 11 11 10 11 14 15 13 13 13 13 11 9 11 15 17 19 20 20 21 21 21 22 22 22 22 21 20 19 18 17 15 15 16 17 19 20 20 20 20 20 19 19 19 18 18 18 18 17 16 16 17
18 17 16 17 17 16 16 15 15 14 13 12 12 11 10 11 14 15 14 14 15 15 15 13 12 12 14 16 18 20 21 22 22 23 23 23 22 21 20 19 19 18 16 15 15 15 17 19 19 19 20 20 19 19 19 20 21 21 21 20 20 20 19
16 17 18 18 18 18 16 15 15 16 13 11 13 13 12 12 14 15 15 15 16 17 16 16 15 15 14 14 15 16 18 20 23 24 24 24 24 23 22 22 21 20 19 18 17 17 17 18 19 19 19 19 18 17 17 19 22 23 23 23 23 22 22
14 14 14 15 15 15 14 12 14 16 15 11 12 14 15 15 15 16 16 16 17 18 18 17 18 18 18 17 16 16 17 19 21 22 24 25 26 27 26 25 24 23 22 22 22 21 20 20 21 21 20 18 17 17 18 21 23 25 25 24 24 24 23
15 13 11 10 10 8 8 8 9 13 15 15 15 16 18 19 18 18 18 18 18 19 19 19 19 20 21 21 21 21 21 21 22 22 23 24 25 27 28 28 27 26 25 25 25 24 23 23 23 23 22 20 19 18 20 23 25 26 26 26 25 24 23
14 13 11 10 9 9 8 7 7 8 11 14 17 17 18 19 20 21 21 21 21 21 21 21 21 21 21 22 25 26 25 25 25 25 25 25 25 25 26 27 28 28 28 28 27 27 27 26 26 26 25 23 22 21 22 24 26 26 26 26 25 23 22
13 12 11 10 9 10 10 10 10 10 10 11 13 14 14 14 15 16 17 19 22 24 24 24 24 24 23 23 25 27 28 29 29 29 29 28 28 27 27 27 28 28 29 30 30 30 30 30 29 29 28 26 26 25 24 25 27 26 25 24 24 23 22
12 10 10 9 8 9 10 10 11 11 11 11 11 12 12 11 10 9 8 9 12 16 18 19 21 23 25 26 26 26 27 28 30 31 32 31 31 31 30 30 30 30 30 31 32 33 33 32 32 31 30 29 29 28 27 27 28 26 23 22 22 22 21
8 5 6 7 8 8 9 9 10 10 10 10 11 11 12 12 11 10 9 8 9 10 12 12 14 17 20 23 25 26 25 26 28 30 32 33 33 33 34 34 33 33 33 33 34 34 34 33 32 31 32 31 30 30 30 29 28 24 22 21 20 19 18
8 7 8 8 9 10 10 10 11 11 11 11 11 12 12 13 12 12 11 11 12 13 14 14 13 14 15 17 20 22 24 26 27 28 30 32 34 35 37 38 37 36 37 37 37 35 34 33 32 31 32 31 31 32 30 26 23 22 20 19 18 17 16
8 10 10 11 12 12 14 14 15 16 16 16 17 16 17 17 17 16 16 16 16 16 17 17 17 16 16 16 17 20 22 25 27 28 29 31 33 35 38 39 38 37 37 37 36 34 33 32 32 31 30 31 33 31 24 19 18 18 18 17 16 15 15
9 10 12 13 13 14 15 16 18 19 19 20 21 21 22 22 22 21 21 21 21 21 21 21 21 21 20 20 19 20 23 25 26 27 28 30 32 35 37 38 38 37 38 38 37 36 35 34 34 33 33 34 34 26 18 16 18 19 17 16 15 14 13
12 13 14 15 15 16 16 17 18 19 20 21 22 23 24 25 26 26 26 25 25 25 25 25 25 25 25 25 25 24 25 25 25 27 29 30 32 33 35 37 38 38 39 39 39 38 36 34 35 35 33 32 29 21 15 17 19 18 17 16 15 13 10
15 16 16 17 17 18 19 19 20 20 21 22 23 24 25 26 27 29 29 29 29 29 28 28 27 26 27 28 28 28 28 27 25 27 30 31 32 32 32 33 35 36 36 37 36 36 35 33 33 33 31 30 26 20 18 20 19 17 16 15 12 10 8
17 18 18 19 19 20 20 21 21 21 21 22 22 23 24 25 26 27 28 29 30 30 30 30 29 28 28 28 28 29 30 29 26 27 30 33 33 33 33 33 33 33 34 35 35 35 33 31 31 31 32 32 28 24 23 20 18 17 16 13 11 10 12
Wind_Direction
182 179 183 188 187 183 182 183 181 179 176 166 161 161 162 162 153 148 147 145 149 156 163 174 179 181 185 188 196 204 208 207 206 210 213 207 199 192 189 188 174 171 174 175 173 163 150 143 143 146 143 139 135 125 109 87 74 68 67 70 72 75 76
185 185 184 183 182 180 182 183 182 182 179 172 172 172 170 172 166 160 159 153 148 149 152 164 170 173 184 191 195 203 204 203 206 208 210 208 204 198 193 183 163 167 175 176 173 170 160 150 147 149 147 139 135 132 121 97 84 66 52 49 48 52 58
187 187 183 180 178 178 180 179 175 178 178 174 175 170 166 171 172 173 173 165 159 158 156 163 168 168 176 183 186 192 190 193 200 196 197 205 205 201 198 190 172 171 175 173 172 173 167 157 153 151 150 148 141 135 126 99 81 62 43 37 29 21 20
186 187 183 179 180 185 187 179 174 181 181 177 174 165 161 170 175 180 186 178 172 178 175 164 160 162 171 176 177 179 177 177 184 185 186 192 197 198 201 202 194 185 185 182 179 178 171 163 157 152 154 161 151 135 126 108 80 61 50 46 39 30 23
186 186 183 182 183 186 187 181 181 193 192 186 183 174 170 179 187 191 200 193 180 186 188 174 164 163 174 178 176 175 175 175 179 183 180 180 190 200 201 201 204 204 198 191 184 180 179 176 165 154 155 159 148 133 128 121 105 81 58 50 46 46 48
186 184 182 184 185 186 185 181 187 199 198 195 192 189 188 195 204 201 200 201 195 191 188 187 195 199 188 184 179 178 178 178 177 174 169 171 181 190 189 187 194 199 196 195 191 184 185 187 172 154 151 154 147 139 139 137 126 114 89 58 49 53 61
185 182 183 184 183 183 183 184 191 194 200 207 203 202 205 204 204 197 187 194 202 202 200 206 210 194 179 177 178 179 176 170 166 159 159 164 167 168 168 171 179 185 185 189 188 181 177 177 170 156 149 149 148 146 153 161 150 127 115 93 67 62 72
185 181 182 182 180 178 177 180 185 181 189 209 214 215 215 205 198 192 186 191 198 204 209 209 197 179 174 175 175 176 169 161 158 156 156 157 155 152 151 155 166 175 180 183 181 179 174 165 161 157 150 149 155 162 172 176 174 162 128 111 97 82 82
183 180 177 176 175 171 169 171 173 174 177 191 209 214 211 204 198 190 191 194 192 195 198 194 188 179 176 176 173 171 166 162 160 160 159 155 149 144 141 143 156 167 177 187 188 187 182 172 166 163 156 155 161 167 179 183 183 183 164 128 113 104 100
183 180 174 171 170 168 169 174 179 180 176 172 194 203 205 206 203 195 195 194 191 189 179 175 178 177 175 173 170 168 165 163 163 163 162 158 151 146 141 137 148 163 174 184 189 193 188 182 181 173 168 179 166 165 174 184 192 192 175 165 147 113 111
186 182 175 172 171 171 175 183 192 192 185 183 188 196 206 212 212 208 198 190 188 184 171 164 167 169 169 168 166 166 165 164 165 164 163 161 156 154 151 144 140 147 158 169 181 192 192 186 189 185 181 195 202 187 179 180 190 196 185 177 168 107 103
187 182 179 178 178 179 182 188 200 203 197 199 200 201 210 215 217 211 197 189 186 184 174 166 167 167 166 168 166 165 166 168 169 167 165 165 164 165 167 163 149 137 140 152 164 178 188 190 195 198 196 200 213 228 213 187 189 193 190 189 191 247 129
186 185 185 186 184 184 187 192 204 208 207 208 202 196 199 205 209 202 192 187 185 187 184 173 172 172 169 169 168 169 171 174 176 174 173 175 175 178 179 176 166 147 141 143 146 156 169 177 180 183 194 204 209 217 217 208 206 196 185 189 229 237 160
186 188 191 191 188 186 189 196 206 211 208 200 187 182 185 193 201 199 194 191 190 195 197 187 180 178 174 170 169 174 177 180 184 183 181 183 184 185 186 182 173 162 157 157 155 157 164 171 176 173 181 198 206 212 214 211 213 201 187 190 207 206 170
186 192 194 193 191 189 189 197 208 207 197 186 177 180 186 188 194 196 195 195 198 202 205 197 188 187 184 175 171 175 179 183 187 185 180 178 178 181 184 183 176 170 171 177 178 182 188 195 204 205 197 192 199 206 209 210 213 206 196 194 192 194 185
187 193 194 193 192 189 190 197 202 196 187 182 180 182 186 183 182 187 193 197 200 203 204 199 193 193 192 183 174 173 177 180 181 176 170 166 165 169 175 180 181 179 182 189 194 197 198 200 204 205 195 180 184 194 202 212 223 214 197 191 190 198 208
189 191 191 192 189 185 186 189 188 185 187 188 183 176 173 172 169 172 183 192 199 203 203 198 193 191 190 186 177 171 172 175 173 169 167 163 159 161 166 174 181 186 191 197 199 196 193 195 198 193 183 178 182 196 207 214 219 217 207 202 201 205 218
189 191 191 189 184 181 182 182 180 182 186 187 180 168 163 166 164 160 167 185 193 196 194 190 185 181 179 177 173 169 170 173 172 170 169 166 161 161 164 170 175 182 189 194 196 197 196 198 200 192 184 184 191 207 215 210 207 212 217 220 218 212 219
191 192 193 187 181 179 179 180 180 181 184 184 178 169 165 171 175 171 168 181 183 182 182 180 176 173 172 171 170 170 173 176 177 176 175 174 172 169 170 174 178 183 190 194 199 204 204 204 204 199 195 195 198 206 210 209 206 206 212 223 226 224 231
182 182 186 186 183 181 181 182 182 179 178 175 172 169 169 178 187 189 191 190 180 181 185 182 179 178 178 178 178 177 179 183 185 184 184 183 182 182 183 186 189 193 198 203 208 210 210 211 211 209 209 210 210 207 209 213 211 205 207 217 225 229 234
172 172 177 184 188 186 184 184 178 171 170 170 173 177 176 181 190 192 196 199 188 187 194 189 187 190 191 188 187 189 190 193 196 196 194 192 193 194 196 198 201 203 206 210 213 215 216 218 219 218 219 221 220 217 217 220 220 218 220 223 225 229 231
174 175 173 173 175 173 174 177 173 167 168 173 179 184 183 187 193 195 200 207 205 202 207 201 195 199 202 199 196 199 202 205 208 208 207 205 206 207 209 211 212 213 215 218 219 221 224 226 228 228 227 226 228 229 228 229 231 232 234 231 228 232 237
175 172 164 161 163 162 164 175 180 178 180 182 184 188 192 192 193 196 203 210 213 215 219 221 211 207 209 211 208 208 210 212 215 216 217 218 219 220 220 221 222 223 225 224 223 225 227 229 231 230 229 230 234 237 240 243 244 241 239 237 236 237 240
170 163 159 163 168 171 173 180 190 197 199 196 191 193 200 202 199 202 207 212 217 221 225 231 233 224 218 218 219 219 218 217 218 221 224 227 231 233 232 231 232 234 234 231 228 227 226 226 227 228 229 232 235 239 245 251 252 248 243 240 239 239 241
168 167 169 175 179 182 184 186 191 197 203 206 201 196 200 204 204 207 212 215 220 225 230 235 240 242 239 234 233 233 229 225 224 226 229 231 235 238 240 240 239 239 239 238 236 235 233 229 228 228 229 232 237 244 252 257 257 253 248 244 240 240 242
161 167 171 177 182 186 191 195 196 196 196 201 202 200 203 207 208 211 216 219 222 227 233 239 241 245 247 248 247 247 245 240 236 235 236 236 236 237 240 242 243 242 241 240 239 239 240 240 236 232 232 237 247 255 263 266 262 257 253 249 248 247 247
140 143 145 152 158 166 174 182 194 200 203 206 205 201 203 209 212 215 219 222 224 226 229 235 241 244 247 249 249 250 251 250 248 247 246 244 243 243 243 244 245 245 244 242 242 242 243 245 243 238 239 247 257 265 269 269 266 262 256 251 251 253 253
126 129 133 138 143 145 148 152 165 188 207 217 218 214 214 220 225 225 224 227 229 229 228 230 236 241 244 246 246 247 250 251 252 252 252 252 251 249 248 248 247 247 247 247 246 246 247 248 244 240 243 253 263 269 271 270 268 266 260 253 251 251 251
132 136 142 147 153 157 161 167 173 182 193 205 214 217 219 227 236 237 235 234 235 235 234 232 234 239 244 246 245 245 247 249 251 252 252 253 254 253 250 249 248 249 248 248 249 249 249 248 245 242 247 258 266 270 273 273 269 264 258 251 246 245 244
139 141 149 156 160 162 166 175 184 189 193 195 200 205 208 211 220 228 234 242 246 246 243 242 243 245 247 249 249 248 247 247 248 250 251 253 254 253 251 250 250 251 251 252 251 247 246 246 244 245 252 262 268 271 274 271 264 258 251 245 240 238 238
159 170 181 181 183 184 186 192 198 200 202 204 205 208 210 212 215 219 224 234 246 251 249 247 252 254 253 254 256 257 256 253 251 249 248 249 250 250 250 249 249 250 252 251 248 244 244 246 248 251 256 261 265 268 266 260 255 250 245 238 233 232 233
210 237 242 234 231 228 227 228 227 226 228 230 230 229 227 226 224 225 227 231 237 244 244 243 246 254 259 262 264 265 263 261 260 256 252 250 249 250 250 247 245 247 249 248 246 246 247 250 254 256 257 260 264 262 256 251 249 246 239 230 226 224 226
252 259 261 260 258 254 252 252 249 247 246 245 244 243 242 241 238 235 235 237 239 243 246 246 245 248 254 260 267 271 268 264 264 263 261 257 254 253 253 250 247 249 251 251 250 252 253 255 257 258 260 265 263 252 242 243 242 232 225 221 218 216 220
285 281 278 277 275 271 268 266 264 262 260 258 255 252 251 252 251 250 248 247 248 249 250 250 248 247 248 251 256 264 268 268 267 267 267 265 261 258 257 256 255 255 258 259 260 260 262 263 263 263 266 267 260 245 230 233 230 217 212 213 211 210 216
300 296 292 289 287 285 282 279 277 275 274 272 271 269 266 264 263 262 261 259 259 259 258 258 255 252 249 249 250 255 260 265 269 272 271 269 266 264 261 260 260 261 262 264 265 265 266 265 264 266 265 257 251 244 227 221 220 211 205 205 206 209 219
301 299 297 294 293 291 290 288 286 285 284 283 282 281 278 275 272 270 268 266 265 265 265 264 263 261 257 253 251 252 254 257 264 271 273 272 272 272 270 267 264 263 263 264 265 266 267 266 265 266 260 248 240 230 213 209 209 204 200 202 207 219 236
302 300 298 296 294 293 292 291 290 290 289 288 286 284 283 281 280 278 275 273 270 268 267 267 266 266 264 261 256 254 253 253 256 264 270 273 275 277 277 274 270 266 264 265 267 267 266 264 262 258 252 244 230 209 201 206 207 203 205 212 225 243 258